Location: La Pernelle
(49.6188°N, 1.2999°W)
Time: 13:11:41
(UTC+00:00)

USA 215 - Pass Details

Date: 12 June 2021
Orbit: 1100 x 1107 km, 123.0° (Epoch: 22 June)

Event Time Altitude Azimuth Distance (km) Brightness Sun altitude
Rises 22:44:42 0° 56° (ENE) 3,924 6.4 -15.0°
Reaches altitude 10° 22:47:11 10° 57° (ENE) 2,964 5.7 -15.1°
Maximum altitude 22:53:46 85° 146° (SE) 1,111 3.2 -15.5°
Drops below altitude 10° 23:00:19 10° 236° (WSW) 2,955 5.3 -15.8°
Sets 23:02:47 0° 237° (WSW) 3,911 6.0 -15.9°
